<?xml version="1.0"?>
<gpx xmlns="http://www.topografix.com/GPX/1/1" xmlns:xsi="http://www.w3.org/2001/XMLSchema-instance" version="1.1" creator="GPX RubyGem 1.0.0 -- http://dougfales.github.io/gpx/" xsi:schemaLocation="http://www.topografix.com/GPX/1/1 http://www.topografix.com/GPX/1/1/gpx.xsd">
  <metadata>
    <name/>
    <time>2026-05-07T20:54:47+00:00</time>
    <bound minlat="90.0" minlon="180.0" maxlat="-90.0" maxlon="-180.0"/>
  </metadata>
  <trk>
    <name/>
    <trkseg>
      <trkpt lat="45.58425" lon="7.336786">
        <time>1970-01-01T00:00:00+00:00</time>
        <ele>1692.0</ele>
      </trkpt>
      <trkpt lat="45.583949" lon="7.335799">
        <time>1970-01-01T00:00:00+00:00</time>
        <ele>1704.0</ele>
      </trkpt>
      <trkpt lat="45.584142" lon="7.33552">
        <time>1970-01-01T00:00:00+00:00</time>
        <ele>1715.0</ele>
      </trkpt>
      <trkpt lat="45.584014" lon="7.33479">
        <time>1970-01-01T00:00:00+00:00</time>
        <ele>1732.0</ele>
      </trkpt>
      <trkpt lat="45.584936" lon="7.334919">
        <time>1970-01-01T00:00:00+00:00</time>
        <ele>1764.0</ele>
      </trkpt>
      <trkpt lat="45.584228" lon="7.333331">
        <time>1970-01-01T00:00:00+00:00</time>
        <ele>1777.0</ele>
      </trkpt>
      <trkpt lat="45.5847" lon="7.333803">
        <time>1970-01-01T00:00:00+00:00</time>
        <ele>1787.0</ele>
      </trkpt>
      <trkpt lat="45.585644" lon="7.334039">
        <time>1970-01-01T00:00:00+00:00</time>
        <ele>1814.0</ele>
      </trkpt>
      <trkpt lat="45.585194" lon="7.333031">
        <time>1970-01-01T00:00:00+00:00</time>
        <ele>1838.0</ele>
      </trkpt>
      <trkpt lat="45.585558" lon="7.333374">
        <time>1970-01-01T00:00:00+00:00</time>
        <ele>1838.0</ele>
      </trkpt>
      <trkpt lat="45.586739" lon="7.333867">
        <time>1970-01-01T00:00:00+00:00</time>
        <ele>1870.0</ele>
      </trkpt>
      <trkpt lat="45.586567" lon="7.333417">
        <time>1970-01-01T00:00:00+00:00</time>
        <ele>1883.0</ele>
      </trkpt>
      <trkpt lat="45.586245" lon="7.333117">
        <time>1970-01-01T00:00:00+00:00</time>
        <ele>1884.0</ele>
      </trkpt>
      <trkpt lat="45.586031" lon="7.332687">
        <time>1970-01-01T00:00:00+00:00</time>
        <ele>1896.0</ele>
      </trkpt>
      <trkpt lat="45.585945" lon="7.332151">
        <time>1970-01-01T00:00:00+00:00</time>
        <ele>1913.0</ele>
      </trkpt>
      <trkpt lat="45.585666" lon="7.331765">
        <time>1970-01-01T00:00:00+00:00</time>
        <ele>1930.0</ele>
      </trkpt>
      <trkpt lat="45.585215" lon="7.331572">
        <time>1970-01-01T00:00:00+00:00</time>
        <ele>1916.0</ele>
      </trkpt>
      <trkpt lat="45.585516" lon="7.331786">
        <time>1970-01-01T00:00:00+00:00</time>
        <ele>1922.0</ele>
      </trkpt>
      <trkpt lat="45.584893" lon="7.330499">
        <time>1970-01-01T00:00:00+00:00</time>
        <ele>1962.0</ele>
      </trkpt>
      <trkpt lat="45.584421" lon="7.330263">
        <time>1970-01-01T00:00:00+00:00</time>
        <ele>1964.0</ele>
      </trkpt>
      <trkpt lat="45.58425" lon="7.329919">
        <time>1970-01-01T00:00:00+00:00</time>
        <ele>1973.0</ele>
      </trkpt>
      <trkpt lat="45.583906" lon="7.330005">
        <time>1970-01-01T00:00:00+00:00</time>
        <ele>1969.0</ele>
      </trkpt>
      <trkpt lat="45.583348" lon="7.329619">
        <time>1970-01-01T00:00:00+00:00</time>
        <ele>1984.0</ele>
      </trkpt>
      <trkpt lat="45.583198" lon="7.328761">
        <time>1970-01-01T00:00:00+00:00</time>
        <ele>2004.0</ele>
      </trkpt>
      <trkpt lat="45.583348" lon="7.328353">
        <time>1970-01-01T00:00:00+00:00</time>
        <ele>2023.0</ele>
      </trkpt>
      <trkpt lat="45.583262" lon="7.327817">
        <time>1970-01-01T00:00:00+00:00</time>
        <ele>2041.0</ele>
      </trkpt>
      <trkpt lat="45.583413" lon="7.327645">
        <time>1970-01-01T00:00:00+00:00</time>
        <ele>2045.0</ele>
      </trkpt>
      <trkpt lat="45.583048" lon="7.327151">
        <time>1970-01-01T00:00:00+00:00</time>
        <ele>2065.0</ele>
      </trkpt>
      <trkpt lat="45.583048" lon="7.326808">
        <time>1970-01-01T00:00:00+00:00</time>
        <ele>2080.0</ele>
      </trkpt>
      <trkpt lat="45.582619" lon="7.325671">
        <time>1970-01-01T00:00:00+00:00</time>
        <ele>2113.0</ele>
      </trkpt>
      <trkpt lat="45.582597" lon="7.324963">
        <time>1970-01-01T00:00:00+00:00</time>
        <ele>2130.0</ele>
      </trkpt>
      <trkpt lat="45.582104" lon="7.323675">
        <time>1970-01-01T00:00:00+00:00</time>
        <ele>2170.0</ele>
      </trkpt>
      <trkpt lat="45.581975" lon="7.323139">
        <time>1970-01-01T00:00:00+00:00</time>
        <ele>2182.0</ele>
      </trkpt>
      <trkpt lat="45.581975" lon="7.322946">
        <time>1970-01-01T00:00:00+00:00</time>
        <ele>2185.0</ele>
      </trkpt>
      <trkpt lat="45.582104" lon="7.322946">
        <time>1970-01-01T00:00:00+00:00</time>
        <ele>2184.0</ele>
      </trkpt>
      <trkpt lat="45.582018" lon="7.323224">
        <time>1970-01-01T00:00:00+00:00</time>
        <ele>2180.0</ele>
      </trkpt>
      <trkpt lat="45.58176" lon="7.321873">
        <time>1970-01-01T00:00:00+00:00</time>
        <ele>2207.0</ele>
      </trkpt>
      <trkpt lat="45.581524" lon="7.321637">
        <time>1970-01-01T00:00:00+00:00</time>
        <ele>2218.0</ele>
      </trkpt>
      <trkpt lat="45.581396" lon="7.320864">
        <time>1970-01-01T00:00:00+00:00</time>
        <ele>2232.0</ele>
      </trkpt>
      <trkpt lat="45.58116" lon="7.320671">
        <time>1970-01-01T00:00:00+00:00</time>
        <ele>2243.0</ele>
      </trkpt>
      <trkpt lat="45.581052" lon="7.320371">
        <time>1970-01-01T00:00:00+00:00</time>
        <ele>2252.0</ele>
      </trkpt>
      <trkpt lat="45.580988" lon="7.31874">
        <time>1970-01-01T00:00:00+00:00</time>
        <ele>2292.0</ele>
      </trkpt>
      <trkpt lat="45.580409" lon="7.317495">
        <time>1970-01-01T00:00:00+00:00</time>
        <ele>2328.0</ele>
      </trkpt>
      <trkpt lat="45.580323" lon="7.316122">
        <time>1970-01-01T00:00:00+00:00</time>
        <ele>2355.0</ele>
      </trkpt>
      <trkpt lat="45.579872" lon="7.315114">
        <time>1970-01-01T00:00:00+00:00</time>
        <ele>2384.0</ele>
      </trkpt>
      <trkpt lat="45.579743" lon="7.314491">
        <time>1970-01-01T00:00:00+00:00</time>
        <ele>2401.0</ele>
      </trkpt>
      <trkpt lat="45.579722" lon="7.313847">
        <time>1970-01-01T00:00:00+00:00</time>
        <ele>2418.0</ele>
      </trkpt>
      <trkpt lat="45.579979" lon="7.31344">
        <time>1970-01-01T00:00:00+00:00</time>
        <ele>2421.0</ele>
      </trkpt>
      <trkpt lat="45.580044" lon="7.312775">
        <time>1970-01-01T00:00:00+00:00</time>
        <ele>2432.0</ele>
      </trkpt>
      <trkpt lat="45.580001" lon="7.312088">
        <time>1970-01-01T00:00:00+00:00</time>
        <ele>2454.0</ele>
      </trkpt>
      <trkpt lat="45.579765" lon="7.311659">
        <time>1970-01-01T00:00:00+00:00</time>
        <ele>2468.0</ele>
      </trkpt>
      <trkpt lat="45.579872" lon="7.311187">
        <time>1970-01-01T00:00:00+00:00</time>
        <ele>2479.0</ele>
      </trkpt>
      <trkpt lat="45.579636" lon="7.310908">
        <time>1970-01-01T00:00:00+00:00</time>
        <ele>2493.0</ele>
      </trkpt>
      <trkpt lat="45.579572" lon="7.310436">
        <time>1970-01-01T00:00:00+00:00</time>
        <ele>2505.0</ele>
      </trkpt>
      <trkpt lat="45.5794" lon="7.310307">
        <time>1970-01-01T00:00:00+00:00</time>
        <ele>2510.0</ele>
      </trkpt>
      <trkpt lat="45.579701" lon="7.309277">
        <time>1970-01-01T00:00:00+00:00</time>
        <ele>2526.0</ele>
      </trkpt>
      <trkpt lat="45.579464" lon="7.307131">
        <time>1970-01-01T00:00:00+00:00</time>
        <ele>2556.0</ele>
      </trkpt>
      <trkpt lat="45.579422" lon="7.305179">
        <time>1970-01-01T00:00:00+00:00</time>
        <ele>2563.0</ele>
      </trkpt>
      <trkpt lat="45.579529" lon="7.304234">
        <time>1970-01-01T00:00:00+00:00</time>
        <ele>2568.0</ele>
      </trkpt>
      <trkpt lat="45.579786" lon="7.303398">
        <time>1970-01-01T00:00:00+00:00</time>
        <ele>2572.0</ele>
      </trkpt>
      <trkpt lat="45.579958" lon="7.303226">
        <time>1970-01-01T00:00:00+00:00</time>
        <ele>2576.0</ele>
      </trkpt>
      <trkpt lat="45.579829" lon="7.299922">
        <time>1970-01-01T00:00:00+00:00</time>
        <ele>2615.0</ele>
      </trkpt>
      <trkpt lat="45.580387" lon="7.2999">
        <time>1970-01-01T00:00:00+00:00</time>
        <ele>2620.0</ele>
      </trkpt>
      <trkpt lat="45.580494" lon="7.299814">
        <time>1970-01-01T00:00:00+00:00</time>
        <ele>2625.0</ele>
      </trkpt>
      <trkpt lat="45.580452" lon="7.299428">
        <time>1970-01-01T00:00:00+00:00</time>
        <ele>2632.0</ele>
      </trkpt>
      <trkpt lat="45.580816" lon="7.299364">
        <time>1970-01-01T00:00:00+00:00</time>
        <ele>2646.0</ele>
      </trkpt>
      <trkpt lat="45.580645" lon="7.298655">
        <time>1970-01-01T00:00:00+00:00</time>
        <ele>2656.0</ele>
      </trkpt>
      <trkpt lat="45.580795" lon="7.29857">
        <time>1970-01-01T00:00:00+00:00</time>
        <ele>2663.0</ele>
      </trkpt>
      <trkpt lat="45.580773" lon="7.297282">
        <time>1970-01-01T00:00:00+00:00</time>
        <ele>2687.0</ele>
      </trkpt>
      <trkpt lat="45.581524" lon="7.294943">
        <time>1970-01-01T00:00:00+00:00</time>
        <ele>2724.0</ele>
      </trkpt>
      <trkpt lat="45.581696" lon="7.293334">
        <time>1970-01-01T00:00:00+00:00</time>
        <ele>2749.0</ele>
      </trkpt>
      <trkpt lat="45.581996" lon="7.293034">
        <time>1970-01-01T00:00:00+00:00</time>
        <ele>2763.0</ele>
      </trkpt>
      <trkpt lat="45.581954" lon="7.292712">
        <time>1970-01-01T00:00:00+00:00</time>
        <ele>2768.0</ele>
      </trkpt>
      <trkpt lat="45.582383" lon="7.291296">
        <time>1970-01-01T00:00:00+00:00</time>
        <ele>2786.0</ele>
      </trkpt>
      <trkpt lat="45.582748" lon="7.28915">
        <time>1970-01-01T00:00:00+00:00</time>
        <ele>2810.0</ele>
      </trkpt>
      <trkpt lat="45.584443" lon="7.286382">
        <time>1970-01-01T00:00:00+00:00</time>
        <ele>2858.0</ele>
      </trkpt>
      <trkpt lat="45.584786" lon="7.284622">
        <time>1970-01-01T00:00:00+00:00</time>
        <ele>2902.0</ele>
      </trkpt>
      <trkpt lat="45.585129" lon="7.28488">
        <time>1970-01-01T00:00:00+00:00</time>
        <ele>2916.0</ele>
      </trkpt>
      <trkpt lat="45.585151" lon="7.284558">
        <time>1970-01-01T00:00:00+00:00</time>
        <ele>2923.0</ele>
      </trkpt>
      <trkpt lat="45.585494" lon="7.284751">
        <time>1970-01-01T00:00:00+00:00</time>
        <ele>2940.0</ele>
      </trkpt>
      <trkpt lat="45.585558" lon="7.284601">
        <time>1970-01-01T00:00:00+00:00</time>
        <ele>2947.0</ele>
      </trkpt>
      <trkpt lat="45.58573" lon="7.284815">
        <time>1970-01-01T00:00:00+00:00</time>
        <ele>2955.0</ele>
      </trkpt>
      <trkpt lat="45.585666" lon="7.284257">
        <time>1970-01-01T00:00:00+00:00</time>
        <ele>2960.0</ele>
      </trkpt>
      <trkpt lat="45.585902" lon="7.284322">
        <time>1970-01-01T00:00:00+00:00</time>
        <ele>2977.0</ele>
      </trkpt>
      <trkpt lat="45.585902" lon="7.28385">
        <time>1970-01-01T00:00:00+00:00</time>
        <ele>2985.0</ele>
      </trkpt>
      <trkpt lat="45.586095" lon="7.284129">
        <time>1970-01-01T00:00:00+00:00</time>
        <ele>2995.0</ele>
      </trkpt>
      <trkpt lat="45.586245" lon="7.283506">
        <time>1970-01-01T00:00:00+00:00</time>
        <ele>3014.0</ele>
      </trkpt>
      <trkpt lat="45.58646" lon="7.283764">
        <time>1970-01-01T00:00:00+00:00</time>
        <ele>3028.0</ele>
      </trkpt>
      <trkpt lat="45.586567" lon="7.283571">
        <time>1970-01-01T00:00:00+00:00</time>
        <ele>3040.0</ele>
      </trkpt>
      <trkpt lat="45.58676" lon="7.283742">
        <time>1970-01-01T00:00:00+00:00</time>
        <ele>3048.0</ele>
      </trkpt>
      <trkpt lat="45.586975" lon="7.282949">
        <time>1970-01-01T00:00:00+00:00</time>
        <ele>3072.0</ele>
      </trkpt>
      <trkpt lat="45.587254" lon="7.280073">
        <time>1970-01-01T00:00:00+00:00</time>
        <ele>3116.0</ele>
      </trkpt>
      <trkpt lat="45.586975" lon="7.27782">
        <time>1970-01-01T00:00:00+00:00</time>
        <ele>3152.0</ele>
      </trkpt>
      <trkpt lat="45.587146" lon="7.277412">
        <time>1970-01-01T00:00:00+00:00</time>
        <ele>3162.0</ele>
      </trkpt>
      <trkpt lat="45.587618" lon="7.277262">
        <time>1970-01-01T00:00:00+00:00</time>
        <ele>3173.0</ele>
      </trkpt>
      <trkpt lat="45.587812" lon="7.276404">
        <time>1970-01-01T00:00:00+00:00</time>
        <ele>3181.0</ele>
      </trkpt>
      <trkpt lat="45.587511" lon="7.275395">
        <time>1970-01-01T00:00:00+00:00</time>
        <ele>3192.0</ele>
      </trkpt>
      <trkpt lat="45.587533" lon="7.275009">
        <time>1970-01-01T00:00:00+00:00</time>
        <ele>3203.0</ele>
      </trkpt>
      <trkpt lat="45.587297" lon="7.274516">
        <time>1970-01-01T00:00:00+00:00</time>
        <ele>3210.0</ele>
      </trkpt>
      <trkpt lat="45.58779" lon="7.274194">
        <time>1970-01-01T00:00:00+00:00</time>
        <ele>3227.0</ele>
      </trkpt>
      <trkpt lat="45.58794" lon="7.273829">
        <time>1970-01-01T00:00:00+00:00</time>
        <ele>3247.0</ele>
      </trkpt>
      <trkpt lat="45.588348" lon="7.273915">
        <time>1970-01-01T00:00:00+00:00</time>
        <ele>3263.0</ele>
      </trkpt>
      <trkpt lat="45.588198" lon="7.2737">
        <time>1970-01-01T00:00:00+00:00</time>
        <ele>3265.0</ele>
      </trkpt>
      <trkpt lat="45.588284" lon="7.273958">
        <time>1970-01-01T00:00:00+00:00</time>
        <ele>3257.0</ele>
      </trkpt>
      <trkpt lat="45.588498" lon="7.274108">
        <time>1970-01-01T00:00:00+00:00</time>
        <ele>3266.0</ele>
      </trkpt>
      <trkpt lat="45.588541" lon="7.27355">
        <time>1970-01-01T00:00:00+00:00</time>
        <ele>3291.0</ele>
      </trkpt>
      <trkpt lat="45.588734" lon="7.273207">
        <time>1970-01-01T00:00:00+00:00</time>
        <ele>3314.0</ele>
      </trkpt>
      <trkpt lat="45.58867" lon="7.272778">
        <time>1970-01-01T00:00:00+00:00</time>
        <ele>3331.0</ele>
      </trkpt>
      <trkpt lat="45.588327" lon="7.272284">
        <time>1970-01-01T00:00:00+00:00</time>
        <ele>3338.0</ele>
      </trkpt>
      <trkpt lat="45.588541" lon="7.272177">
        <time>1970-01-01T00:00:00+00:00</time>
        <ele>3350.0</ele>
      </trkpt>
      <trkpt lat="45.588541" lon="7.271812">
        <time>1970-01-01T00:00:00+00:00</time>
        <ele>3361.0</ele>
      </trkpt>
      <trkpt lat="45.58867" lon="7.271876">
        <time>1970-01-01T00:00:00+00:00</time>
        <ele>3366.0</ele>
      </trkpt>
      <trkpt lat="45.588605" lon="7.271533">
        <time>1970-01-01T00:00:00+00:00</time>
        <ele>3371.0</ele>
      </trkpt>
      <trkpt lat="45.588884" lon="7.271941">
        <time>1970-01-01T00:00:00+00:00</time>
        <ele>3377.0</ele>
      </trkpt>
      <trkpt lat="45.589013" lon="7.271748">
        <time>1970-01-01T00:00:00+00:00</time>
        <ele>3394.0</ele>
      </trkpt>
      <trkpt lat="45.589013" lon="7.271512">
        <time>1970-01-01T00:00:00+00:00</time>
        <ele>3401.0</ele>
      </trkpt>
      <trkpt lat="45.588884" lon="7.27149">
        <time>1970-01-01T00:00:00+00:00</time>
        <ele>3390.0</ele>
      </trkpt>
      <trkpt lat="45.589035" lon="7.271297">
        <time>1970-01-01T00:00:00+00:00</time>
        <ele>3412.0</ele>
      </trkpt>
      <trkpt lat="45.589099" lon="7.270696">
        <time>1970-01-01T00:00:00+00:00</time>
        <ele>3442.0</ele>
      </trkpt>
      <trkpt lat="45.588927" lon="7.270396">
        <time>1970-01-01T00:00:00+00:00</time>
        <ele>3445.0</ele>
      </trkpt>
      <trkpt lat="45.589464" lon="7.269537">
        <time>1970-01-01T00:00:00+00:00</time>
        <ele>3501.0</ele>
      </trkpt>
      <trkpt lat="45.589399" lon="7.26898">
        <time>1970-01-01T00:00:00+00:00</time>
        <ele>3521.0</ele>
      </trkpt>
      <trkpt lat="45.589249" lon="7.269301">
        <time>1970-01-01T00:00:00+00:00</time>
        <ele>3515.0</ele>
      </trkpt>
      <trkpt lat="45.589271" lon="7.268937">
        <time>1970-01-01T00:00:00+00:00</time>
        <ele>3527.0</ele>
      </trkpt>
      <trkpt lat="45.588949" lon="7.269344">
        <time>1970-01-01T00:00:00+00:00</time>
        <ele>3512.0</ele>
      </trkpt>
      <trkpt lat="45.588799" lon="7.268057">
        <time>1970-01-01T00:00:00+00:00</time>
        <ele>3576.0</ele>
      </trkpt>
      <trkpt lat="45.588434" lon="7.268422">
        <time>1970-01-01T00:00:00+00:00</time>
        <ele>3568.0</ele>
      </trkpt>
      <trkpt lat="45.588498" lon="7.267134">
        <time>1970-01-01T00:00:00+00:00</time>
        <ele>3606.0</ele>
      </trkpt>
      <trkpt lat="45.588176" lon="7.267091">
        <time>1970-01-01T00:00:00+00:00</time>
        <ele>3617.0</ele>
      </trkpt>
      <trkpt lat="45.588176" lon="7.266104">
        <time>1970-01-01T00:00:00+00:00</time>
        <ele>3638.0</ele>
      </trkpt>
      <trkpt lat="45.587769" lon="7.266233">
        <time>1970-01-01T00:00:00+00:00</time>
        <ele>3654.0</ele>
      </trkpt>
      <trkpt lat="45.587769" lon="7.266362">
        <time>1970-01-01T00:00:00+00:00</time>
        <ele>3651.0</ele>
      </trkpt>
      <trkpt lat="45.587833" lon="7.266126">
        <time>1970-01-01T00:00:00+00:00</time>
        <ele>3653.0</ele>
      </trkpt>
      <trkpt lat="45.587661" lon="7.265589">
        <time>1970-01-01T00:00:00+00:00</time>
        <ele>3670.0</ele>
      </trkpt>
      <trkpt lat="45.587339" lon="7.266083">
        <time>1970-01-01T00:00:00+00:00</time>
        <ele>3657.0</ele>
      </trkpt>
      <trkpt lat="45.587554" lon="7.265847">
        <time>1970-01-01T00:00:00+00:00</time>
        <ele>3666.0</ele>
      </trkpt>
      <trkpt lat="45.587833" lon="7.265976">
        <time>1970-01-01T00:00:00+00:00</time>
        <ele>3656.0</ele>
      </trkpt>
      <trkpt lat="45.58794" lon="7.266447">
        <time>1970-01-01T00:00:00+00:00</time>
        <ele>3642.0</ele>
      </trkpt>
      <trkpt lat="45.588069" lon="7.266405">
        <time>1970-01-01T00:00:00+00:00</time>
        <ele>3638.0</ele>
      </trkpt>
      <trkpt lat="45.588048" lon="7.266662">
        <time>1970-01-01T00:00:00+00:00</time>
        <ele>3633.0</ele>
      </trkpt>
      <trkpt lat="45.588198" lon="7.266641">
        <time>1970-01-01T00:00:00+00:00</time>
        <ele>3628.0</ele>
      </trkpt>
      <trkpt lat="45.588198" lon="7.267091">
        <time>1970-01-01T00:00:00+00:00</time>
        <ele>3616.0</ele>
      </trkpt>
      <trkpt lat="45.588541" lon="7.267156">
        <time>1970-01-01T00:00:00+00:00</time>
        <ele>3603.0</ele>
      </trkpt>
      <trkpt lat="45.588455" lon="7.267435">
        <time>1970-01-01T00:00:00+00:00</time>
        <ele>3599.0</ele>
      </trkpt>
      <trkpt lat="45.588648" lon="7.267606">
        <time>1970-01-01T00:00:00+00:00</time>
        <ele>3589.0</ele>
      </trkpt>
      <trkpt lat="45.588648" lon="7.267885">
        <time>1970-01-01T00:00:00+00:00</time>
        <ele>3583.0</ele>
      </trkpt>
      <trkpt lat="45.588777" lon="7.267928">
        <time>1970-01-01T00:00:00+00:00</time>
        <ele>3579.0</ele>
      </trkpt>
      <trkpt lat="45.588734" lon="7.268336">
        <time>1970-01-01T00:00:00+00:00</time>
        <ele>3572.0</ele>
      </trkpt>
      <trkpt lat="45.588884" lon="7.268229">
        <time>1970-01-01T00:00:00+00:00</time>
        <ele>3568.0</ele>
      </trkpt>
      <trkpt lat="45.588756" lon="7.26898">
        <time>1970-01-01T00:00:00+00:00</time>
        <ele>3535.0</ele>
      </trkpt>
      <trkpt lat="45.588884" lon="7.268829">
        <time>1970-01-01T00:00:00+00:00</time>
        <ele>3545.0</ele>
      </trkpt>
      <trkpt lat="45.588949" lon="7.269323">
        <time>1970-01-01T00:00:00+00:00</time>
        <ele>3513.0</ele>
      </trkpt>
      <trkpt lat="45.589271" lon="7.26958">
        <time>1970-01-01T00:00:00+00:00</time>
        <ele>3502.0</ele>
      </trkpt>
      <trkpt lat="45.589485" lon="7.269151">
        <time>1970-01-01T00:00:00+00:00</time>
        <ele>3511.0</ele>
      </trkpt>
      <trkpt lat="45.589442" lon="7.269623">
        <time>1970-01-01T00:00:00+00:00</time>
        <ele>3498.0</ele>
      </trkpt>
      <trkpt lat="45.589635" lon="7.269409">
        <time>1970-01-01T00:00:00+00:00</time>
        <ele>3497.0</ele>
      </trkpt>
      <trkpt lat="45.589786" lon="7.269752">
        <time>1970-01-01T00:00:00+00:00</time>
        <ele>3480.0</ele>
      </trkpt>
      <trkpt lat="45.589979" lon="7.269537">
        <time>1970-01-01T00:00:00+00:00</time>
        <ele>3475.0</ele>
      </trkpt>
      <trkpt lat="45.590923" lon="7.27119">
        <time>1970-01-01T00:00:00+00:00</time>
        <ele>3423.0</ele>
      </trkpt>
      <trkpt lat="45.592339" lon="7.273078">
        <time>1970-01-01T00:00:00+00:00</time>
        <ele>3395.0</ele>
      </trkpt>
      <trkpt lat="45.592082" lon="7.273078">
        <time>1970-01-01T00:00:00+00:00</time>
        <ele>3407.0</ele>
      </trkpt>
      <trkpt lat="45.592189" lon="7.272949">
        <time>1970-01-01T00:00:00+00:00</time>
        <ele>3398.0</ele>
      </trkpt>
      <trkpt lat="45.592167" lon="7.273486">
        <time>1970-01-01T00:00:00+00:00</time>
        <ele>3412.0</ele>
      </trkpt>
      <trkpt lat="45.592446" lon="7.274902">
        <time>1970-01-01T00:00:00+00:00</time>
        <ele>3447.0</ele>
      </trkpt>
      <trkpt lat="45.592082" lon="7.274988">
        <time>1970-01-01T00:00:00+00:00</time>
        <ele>3467.0</ele>
      </trkpt>
      <trkpt lat="45.592489" lon="7.277305">
        <time>1970-01-01T00:00:00+00:00</time>
        <ele>3513.0</ele>
      </trkpt>
      <trkpt lat="45.593026" lon="7.278635">
        <time>1970-01-01T00:00:00+00:00</time>
        <ele>3543.0</ele>
      </trkpt>
      <trkpt lat="45.59309" lon="7.279515">
        <time>1970-01-01T00:00:00+00:00</time>
        <ele>3563.0</ele>
      </trkpt>
      <trkpt lat="45.59294" lon="7.279472">
        <time>1970-01-01T00:00:00+00:00</time>
        <ele>3569.0</ele>
      </trkpt>
      <trkpt lat="45.592918" lon="7.279708">
        <time>1970-01-01T00:00:00+00:00</time>
        <ele>3571.0</ele>
      </trkpt>
      <trkpt lat="45.592661" lon="7.279429">
        <time>1970-01-01T00:00:00+00:00</time>
        <ele>3583.0</ele>
      </trkpt>
      <trkpt lat="45.592532" lon="7.279665">
        <time>1970-01-01T00:00:00+00:00</time>
        <ele>3584.0</ele>
      </trkpt>
      <trkpt lat="45.592103" lon="7.279108">
        <time>1970-01-01T00:00:00+00:00</time>
        <ele>3574.0</ele>
      </trkpt>
      <trkpt lat="45.591674" lon="7.278872">
        <time>1970-01-01T00:00:00+00:00</time>
        <ele>3521.0</ele>
      </trkpt>
      <trkpt lat="45.59206" lon="7.279236">
        <time>1970-01-01T00:00:00+00:00</time>
        <ele>3568.0</ele>
      </trkpt>
      <trkpt lat="45.592403" lon="7.279301">
        <time>1970-01-01T00:00:00+00:00</time>
        <ele>3589.0</ele>
      </trkpt>
      <trkpt lat="45.592876" lon="7.279859">
        <time>1970-01-01T00:00:00+00:00</time>
        <ele>3571.0</ele>
      </trkpt>
      <trkpt lat="45.59294" lon="7.279558">
        <time>1970-01-01T00:00:00+00:00</time>
        <ele>3570.0</ele>
      </trkpt>
      <trkpt lat="45.593283" lon="7.279494">
        <time>1970-01-01T00:00:00+00:00</time>
        <ele>3552.0</ele>
      </trkpt>
      <trkpt lat="45.593627" lon="7.280953">
        <time>1970-01-01T00:00:00+00:00</time>
        <ele>3529.0</ele>
      </trkpt>
      <trkpt lat="45.593841" lon="7.281039">
        <time>1970-01-01T00:00:00+00:00</time>
        <ele>3516.0</ele>
      </trkpt>
      <trkpt lat="45.59442" lon="7.282198">
        <time>1970-01-01T00:00:00+00:00</time>
        <ele>3486.0</ele>
      </trkpt>
      <trkpt lat="45.594807" lon="7.282455">
        <time>1970-01-01T00:00:00+00:00</time>
        <ele>3468.0</ele>
      </trkpt>
      <trkpt lat="45.595" lon="7.282841">
        <time>1970-01-01T00:00:00+00:00</time>
        <ele>3459.0</ele>
      </trkpt>
      <trkpt lat="45.595021" lon="7.283378">
        <time>1970-01-01T00:00:00+00:00</time>
        <ele>3449.0</ele>
      </trkpt>
      <trkpt lat="45.595193" lon="7.283657">
        <time>1970-01-01T00:00:00+00:00</time>
        <ele>3434.0</ele>
      </trkpt>
      <trkpt lat="45.595021" lon="7.283957">
        <time>1970-01-01T00:00:00+00:00</time>
        <ele>3425.0</ele>
      </trkpt>
      <trkpt lat="45.595172" lon="7.284043">
        <time>1970-01-01T00:00:00+00:00</time>
        <ele>3422.0</ele>
      </trkpt>
      <trkpt lat="45.595086" lon="7.284322">
        <time>1970-01-01T00:00:00+00:00</time>
        <ele>3414.0</ele>
      </trkpt>
      <trkpt lat="45.595257" lon="7.284536">
        <time>1970-01-01T00:00:00+00:00</time>
        <ele>3407.0</ele>
      </trkpt>
      <trkpt lat="45.595043" lon="7.284622">
        <time>1970-01-01T00:00:00+00:00</time>
        <ele>3403.0</ele>
      </trkpt>
      <trkpt lat="45.59515" lon="7.284987">
        <time>1970-01-01T00:00:00+00:00</time>
        <ele>3394.0</ele>
      </trkpt>
      <trkpt lat="45.594957" lon="7.285545">
        <time>1970-01-01T00:00:00+00:00</time>
        <ele>3360.0</ele>
      </trkpt>
      <trkpt lat="45.594807" lon="7.285523">
        <time>1970-01-01T00:00:00+00:00</time>
        <ele>3357.0</ele>
      </trkpt>
      <trkpt lat="45.594935" lon="7.285588">
        <time>1970-01-01T00:00:00+00:00</time>
        <ele>3358.0</ele>
      </trkpt>
      <trkpt lat="45.595129" lon="7.286124">
        <time>1970-01-01T00:00:00+00:00</time>
        <ele>3342.0</ele>
      </trkpt>
      <trkpt lat="45.594957" lon="7.286639">
        <time>1970-01-01T00:00:00+00:00</time>
        <ele>3320.0</ele>
      </trkpt>
      <trkpt lat="45.595343" lon="7.286875">
        <time>1970-01-01T00:00:00+00:00</time>
        <ele>3314.0</ele>
      </trkpt>
      <trkpt lat="45.595193" lon="7.287519">
        <time>1970-01-01T00:00:00+00:00</time>
        <ele>3280.0</ele>
      </trkpt>
      <trkpt lat="45.595472" lon="7.287777">
        <time>1970-01-01T00:00:00+00:00</time>
        <ele>3277.0</ele>
      </trkpt>
      <trkpt lat="45.595064" lon="7.289128">
        <time>1970-01-01T00:00:00+00:00</time>
        <ele>3219.0</ele>
      </trkpt>
      <trkpt lat="45.596502" lon="7.290158">
        <time>1970-01-01T00:00:00+00:00</time>
        <ele>3204.0</ele>
      </trkpt>
      <trkpt lat="45.596523" lon="7.29048">
        <time>1970-01-01T00:00:00+00:00</time>
        <ele>3196.0</ele>
      </trkpt>
      <trkpt lat="45.596738" lon="7.290566">
        <time>1970-01-01T00:00:00+00:00</time>
        <ele>3192.0</ele>
      </trkpt>
      <trkpt lat="45.596824" lon="7.290931">
        <time>1970-01-01T00:00:00+00:00</time>
        <ele>3182.0</ele>
      </trkpt>
      <trkpt lat="45.596845" lon="7.290781">
        <time>1970-01-01T00:00:00+00:00</time>
        <ele>3185.0</ele>
      </trkpt>
      <trkpt lat="45.597017" lon="7.290781">
        <time>1970-01-01T00:00:00+00:00</time>
        <ele>3182.0</ele>
      </trkpt>
      <trkpt lat="45.597403" lon="7.291811">
        <time>1970-01-01T00:00:00+00:00</time>
        <ele>3147.0</ele>
      </trkpt>
      <trkpt lat="45.597403" lon="7.292647">
        <time>1970-01-01T00:00:00+00:00</time>
        <ele>3130.0</ele>
      </trkpt>
      <trkpt lat="45.597596" lon="7.292497">
        <time>1970-01-01T00:00:00+00:00</time>
        <ele>3131.0</ele>
      </trkpt>
      <trkpt lat="45.597982" lon="7.293313">
        <time>1970-01-01T00:00:00+00:00</time>
        <ele>3110.0</ele>
      </trkpt>
      <trkpt lat="45.598218" lon="7.293506">
        <time>1970-01-01T00:00:00+00:00</time>
        <ele>3097.0</ele>
      </trkpt>
      <trkpt lat="45.598819" lon="7.293334">
        <time>1970-01-01T00:00:00+00:00</time>
        <ele>3080.0</ele>
      </trkpt>
      <trkpt lat="45.599248" lon="7.29254">
        <time>1970-01-01T00:00:00+00:00</time>
        <ele>3067.0</ele>
      </trkpt>
      <trkpt lat="45.59942" lon="7.292454">
        <time>1970-01-01T00:00:00+00:00</time>
        <ele>3063.0</ele>
      </trkpt>
      <trkpt lat="45.600407" lon="7.292883">
        <time>1970-01-01T00:00:00+00:00</time>
        <ele>3018.0</ele>
      </trkpt>
      <trkpt lat="45.600579" lon="7.293162">
        <time>1970-01-01T00:00:00+00:00</time>
        <ele>3007.0</ele>
      </trkpt>
      <trkpt lat="45.601523" lon="7.292261">
        <time>1970-01-01T00:00:00+00:00</time>
        <ele>2986.0</ele>
      </trkpt>
      <trkpt lat="45.601802" lon="7.292347">
        <time>1970-01-01T00:00:00+00:00</time>
        <ele>2981.0</ele>
      </trkpt>
      <trkpt lat="45.601866" lon="7.292776">
        <time>1970-01-01T00:00:00+00:00</time>
        <ele>2972.0</ele>
      </trkpt>
      <trkpt lat="45.602231" lon="7.292883">
        <time>1970-01-01T00:00:00+00:00</time>
        <ele>2964.0</ele>
      </trkpt>
      <trkpt lat="45.602124" lon="7.292991">
        <time>1970-01-01T00:00:00+00:00</time>
        <ele>2965.0</ele>
      </trkpt>
      <trkpt lat="45.602253" lon="7.293334">
        <time>1970-01-01T00:00:00+00:00</time>
        <ele>2954.0</ele>
      </trkpt>
      <trkpt lat="45.602059" lon="7.294192">
        <time>1970-01-01T00:00:00+00:00</time>
        <ele>2926.0</ele>
      </trkpt>
      <trkpt lat="45.602145" lon="7.294536">
        <time>1970-01-01T00:00:00+00:00</time>
        <ele>2911.0</ele>
      </trkpt>
      <trkpt lat="45.60236" lon="7.294707">
        <time>1970-01-01T00:00:00+00:00</time>
        <ele>2904.0</ele>
      </trkpt>
      <trkpt lat="45.60266" lon="7.295845">
        <time>1970-01-01T00:00:00+00:00</time>
        <ele>2869.0</ele>
      </trkpt>
      <trkpt lat="45.602188" lon="7.297432">
        <time>1970-01-01T00:00:00+00:00</time>
        <ele>2814.0</ele>
      </trkpt>
      <trkpt lat="45.601931" lon="7.297625">
        <time>1970-01-01T00:00:00+00:00</time>
        <ele>2811.0</ele>
      </trkpt>
      <trkpt lat="45.601974" lon="7.297862">
        <time>1970-01-01T00:00:00+00:00</time>
        <ele>2803.0</ele>
      </trkpt>
      <trkpt lat="45.602167" lon="7.29842">
        <time>1970-01-01T00:00:00+00:00</time>
        <ele>2786.0</ele>
      </trkpt>
      <trkpt lat="45.602338" lon="7.298462">
        <time>1970-01-01T00:00:00+00:00</time>
        <ele>2782.0</ele>
      </trkpt>
      <trkpt lat="45.602596" lon="7.299321">
        <time>1970-01-01T00:00:00+00:00</time>
        <ele>2756.0</ele>
      </trkpt>
      <trkpt lat="45.602746" lon="7.299321">
        <time>1970-01-01T00:00:00+00:00</time>
        <ele>2752.0</ele>
      </trkpt>
      <trkpt lat="45.603025" lon="7.299793">
        <time>1970-01-01T00:00:00+00:00</time>
        <ele>2734.0</ele>
      </trkpt>
      <trkpt lat="45.603132" lon="7.299685">
        <time>1970-01-01T00:00:00+00:00</time>
        <ele>2733.0</ele>
      </trkpt>
      <trkpt lat="45.603647" lon="7.300715">
        <time>1970-01-01T00:00:00+00:00</time>
        <ele>2692.0</ele>
      </trkpt>
      <trkpt lat="45.603819" lon="7.300737">
        <time>1970-01-01T00:00:00+00:00</time>
        <ele>2686.0</ele>
      </trkpt>
      <trkpt lat="45.603626" lon="7.300909">
        <time>1970-01-01T00:00:00+00:00</time>
        <ele>2687.0</ele>
      </trkpt>
      <trkpt lat="45.604034" lon="7.301745">
        <time>1970-01-01T00:00:00+00:00</time>
        <ele>2651.0</ele>
      </trkpt>
      <trkpt lat="45.604248" lon="7.301745">
        <time>1970-01-01T00:00:00+00:00</time>
        <ele>2647.0</ele>
      </trkpt>
      <trkpt lat="45.604334" lon="7.302003">
        <time>1970-01-01T00:00:00+00:00</time>
        <ele>2639.0</ele>
      </trkpt>
      <trkpt lat="45.604527" lon="7.302024">
        <time>1970-01-01T00:00:00+00:00</time>
        <ele>2634.0</ele>
      </trkpt>
      <trkpt lat="45.604634" lon="7.302389">
        <time>1970-01-01T00:00:00+00:00</time>
        <ele>2622.0</ele>
      </trkpt>
      <trkpt lat="45.604956" lon="7.302604">
        <time>1970-01-01T00:00:00+00:00</time>
        <ele>2615.0</ele>
      </trkpt>
      <trkpt lat="45.605278" lon="7.303484">
        <time>1970-01-01T00:00:00+00:00</time>
        <ele>2573.0</ele>
      </trkpt>
      <trkpt lat="45.605471" lon="7.303591">
        <time>1970-01-01T00:00:00+00:00</time>
        <ele>2573.0</ele>
      </trkpt>
      <trkpt lat="45.605514" lon="7.304106">
        <time>1970-01-01T00:00:00+00:00</time>
        <ele>2555.0</ele>
      </trkpt>
      <trkpt lat="45.605664" lon="7.303913">
        <time>1970-01-01T00:00:00+00:00</time>
        <ele>2565.0</ele>
      </trkpt>
      <trkpt lat="45.606287" lon="7.305629">
        <time>1970-01-01T00:00:00+00:00</time>
        <ele>2536.0</ele>
      </trkpt>
      <trkpt lat="45.606308" lon="7.306037">
        <time>1970-01-01T00:00:00+00:00</time>
        <ele>2533.0</ele>
      </trkpt>
      <trkpt lat="45.607145" lon="7.307303">
        <time>1970-01-01T00:00:00+00:00</time>
        <ele>2516.0</ele>
      </trkpt>
      <trkpt lat="45.607252" lon="7.307947">
        <time>1970-01-01T00:00:00+00:00</time>
        <ele>2514.0</ele>
      </trkpt>
      <trkpt lat="45.606844" lon="7.309298">
        <time>1970-01-01T00:00:00+00:00</time>
        <ele>2499.0</ele>
      </trkpt>
      <trkpt lat="45.606823" lon="7.310092">
        <time>1970-01-01T00:00:00+00:00</time>
        <ele>2480.0</ele>
      </trkpt>
      <trkpt lat="45.606973" lon="7.310693">
        <time>1970-01-01T00:00:00+00:00</time>
        <ele>2468.0</ele>
      </trkpt>
      <trkpt lat="45.606716" lon="7.311745">
        <time>1970-01-01T00:00:00+00:00</time>
        <ele>2452.0</ele>
      </trkpt>
      <trkpt lat="45.606973" lon="7.31226">
        <time>1970-01-01T00:00:00+00:00</time>
        <ele>2434.0</ele>
      </trkpt>
      <trkpt lat="45.606909" lon="7.312796">
        <time>1970-01-01T00:00:00+00:00</time>
        <ele>2429.0</ele>
      </trkpt>
      <trkpt lat="45.607231" lon="7.313268">
        <time>1970-01-01T00:00:00+00:00</time>
        <ele>2421.0</ele>
      </trkpt>
      <trkpt lat="45.607381" lon="7.313204">
        <time>1970-01-01T00:00:00+00:00</time>
        <ele>2415.0</ele>
      </trkpt>
      <trkpt lat="45.60766" lon="7.313633">
        <time>1970-01-01T00:00:00+00:00</time>
        <ele>2400.0</ele>
      </trkpt>
      <trkpt lat="45.607896" lon="7.315714">
        <time>1970-01-01T00:00:00+00:00</time>
        <ele>2364.0</ele>
      </trkpt>
      <trkpt lat="45.608046" lon="7.315929">
        <time>1970-01-01T00:00:00+00:00</time>
        <ele>2350.0</ele>
      </trkpt>
      <trkpt lat="45.608175" lon="7.315671">
        <time>1970-01-01T00:00:00+00:00</time>
        <ele>2346.0</ele>
      </trkpt>
      <trkpt lat="45.608175" lon="7.316036">
        <time>1970-01-01T00:00:00+00:00</time>
        <ele>2339.0</ele>
      </trkpt>
      <trkpt lat="45.608432" lon="7.316144">
        <time>1970-01-01T00:00:00+00:00</time>
        <ele>2324.0</ele>
      </trkpt>
      <trkpt lat="45.608561" lon="7.316766">
        <time>1970-01-01T00:00:00+00:00</time>
        <ele>2315.0</ele>
      </trkpt>
      <trkpt lat="45.608475" lon="7.31756">
        <time>1970-01-01T00:00:00+00:00</time>
        <ele>2310.0</ele>
      </trkpt>
      <trkpt lat="45.608754" lon="7.317538">
        <time>1970-01-01T00:00:00+00:00</time>
        <ele>2297.0</ele>
      </trkpt>
      <trkpt lat="45.608754" lon="7.318225">
        <time>1970-01-01T00:00:00+00:00</time>
        <ele>2277.0</ele>
      </trkpt>
      <trkpt lat="45.609934" lon="7.318289">
        <time>1970-01-01T00:00:00+00:00</time>
        <ele>2227.0</ele>
      </trkpt>
      <trkpt lat="45.609977" lon="7.31859">
        <time>1970-01-01T00:00:00+00:00</time>
        <ele>2220.0</ele>
      </trkpt>
      <trkpt lat="45.610664" lon="7.31844">
        <time>1970-01-01T00:00:00+00:00</time>
        <ele>2190.0</ele>
      </trkpt>
      <trkpt lat="45.610578" lon="7.31874">
        <time>1970-01-01T00:00:00+00:00</time>
        <ele>2187.0</ele>
      </trkpt>
      <trkpt lat="45.611007" lon="7.320328">
        <time>1970-01-01T00:00:00+00:00</time>
        <ele>2172.0</ele>
      </trkpt>
      <trkpt lat="45.612166" lon="7.322452">
        <time>1970-01-01T00:00:00+00:00</time>
        <ele>2165.0</ele>
      </trkpt>
      <trkpt lat="45.612338" lon="7.322559">
        <time>1970-01-01T00:00:00+00:00</time>
        <ele>2158.0</ele>
      </trkpt>
      <trkpt lat="45.612552" lon="7.323268">
        <time>1970-01-01T00:00:00+00:00</time>
        <ele>2141.0</ele>
      </trkpt>
      <trkpt lat="45.612488" lon="7.323053">
        <time>1970-01-01T00:00:00+00:00</time>
        <ele>2149.0</ele>
      </trkpt>
      <trkpt lat="45.613024" lon="7.322967">
        <time>1970-01-01T00:00:00+00:00</time>
        <ele>2125.0</ele>
      </trkpt>
      <trkpt lat="45.61326" lon="7.323139">
        <time>1970-01-01T00:00:00+00:00</time>
        <ele>2115.0</ele>
      </trkpt>
      <trkpt lat="45.612831" lon="7.323396">
        <time>1970-01-01T00:00:00+00:00</time>
        <ele>2129.0</ele>
      </trkpt>
      <trkpt lat="45.61326" lon="7.323504">
        <time>1970-01-01T00:00:00+00:00</time>
        <ele>2114.0</ele>
      </trkpt>
      <trkpt lat="45.612938" lon="7.323739">
        <time>1970-01-01T00:00:00+00:00</time>
        <ele>2115.0</ele>
      </trkpt>
      <trkpt lat="45.613196" lon="7.323804">
        <time>1970-01-01T00:00:00+00:00</time>
        <ele>2107.0</ele>
      </trkpt>
      <trkpt lat="45.613174" lon="7.324662">
        <time>1970-01-01T00:00:00+00:00</time>
        <ele>2070.0</ele>
      </trkpt>
      <trkpt lat="45.613582" lon="7.324727">
        <time>1970-01-01T00:00:00+00:00</time>
        <ele>2058.0</ele>
      </trkpt>
      <trkpt lat="45.613432" lon="7.32492">
        <time>1970-01-01T00:00:00+00:00</time>
        <ele>2053.0</ele>
      </trkpt>
      <trkpt lat="45.612187" lon="7.325327">
        <time>1970-01-01T00:00:00+00:00</time>
        <ele>2063.0</ele>
      </trkpt>
      <trkpt lat="45.611522" lon="7.325993">
        <time>1970-01-01T00:00:00+00:00</time>
        <ele>2037.0</ele>
      </trkpt>
      <trkpt lat="45.611501" lon="7.3258">
        <time>1970-01-01T00:00:00+00:00</time>
        <ele>2046.0</ele>
      </trkpt>
      <trkpt lat="45.611715" lon="7.325692">
        <time>1970-01-01T00:00:00+00:00</time>
        <ele>2053.0</ele>
      </trkpt>
      <trkpt lat="45.611522" lon="7.325885">
        <time>1970-01-01T00:00:00+00:00</time>
        <ele>2042.0</ele>
      </trkpt>
      <trkpt lat="45.610492" lon="7.326036">
        <time>1970-01-01T00:00:00+00:00</time>
        <ele>2029.0</ele>
      </trkpt>
      <trkpt lat="45.610492" lon="7.325842">
        <time>1970-01-01T00:00:00+00:00</time>
        <ele>2038.0</ele>
      </trkpt>
      <trkpt lat="45.610299" lon="7.325735">
        <time>1970-01-01T00:00:00+00:00</time>
        <ele>2044.0</ele>
      </trkpt>
      <trkpt lat="45.609913" lon="7.325993">
        <time>1970-01-01T00:00:00+00:00</time>
        <ele>2028.0</ele>
      </trkpt>
      <trkpt lat="45.609913" lon="7.326164">
        <time>1970-01-01T00:00:00+00:00</time>
        <ele>2022.0</ele>
      </trkpt>
      <trkpt lat="45.610256" lon="7.326486">
        <time>1970-01-01T00:00:00+00:00</time>
        <ele>2012.0</ele>
      </trkpt>
      <trkpt lat="45.610514" lon="7.326937">
        <time>1970-01-01T00:00:00+00:00</time>
        <ele>1999.0</ele>
      </trkpt>
      <trkpt lat="45.610406" lon="7.327173">
        <time>1970-01-01T00:00:00+00:00</time>
        <ele>1988.0</ele>
      </trkpt>
      <trkpt lat="45.6106" lon="7.327538">
        <time>1970-01-01T00:00:00+00:00</time>
        <ele>1974.0</ele>
      </trkpt>
      <trkpt lat="45.610771" lon="7.32861">
        <time>1970-01-01T00:00:00+00:00</time>
        <ele>1943.0</ele>
      </trkpt>
      <trkpt lat="45.610943" lon="7.328868">
        <time>1970-01-01T00:00:00+00:00</time>
        <ele>1930.0</ele>
      </trkpt>
      <trkpt lat="45.610964" lon="7.32949">
        <time>1970-01-01T00:00:00+00:00</time>
        <ele>1916.0</ele>
      </trkpt>
      <trkpt lat="45.611265" lon="7.329662">
        <time>1970-01-01T00:00:00+00:00</time>
        <ele>1899.0</ele>
      </trkpt>
      <trkpt lat="45.6112" lon="7.329812">
        <time>1970-01-01T00:00:00+00:00</time>
        <ele>1896.0</ele>
      </trkpt>
      <trkpt lat="45.611308" lon="7.329898">
        <time>1970-01-01T00:00:00+00:00</time>
        <ele>1891.0</ele>
      </trkpt>
      <trkpt lat="45.611415" lon="7.329576">
        <time>1970-01-01T00:00:00+00:00</time>
        <ele>1902.0</ele>
      </trkpt>
      <trkpt lat="45.611394" lon="7.329662">
        <time>1970-01-01T00:00:00+00:00</time>
        <ele>1899.0</ele>
      </trkpt>
      <trkpt lat="45.612059" lon="7.330263">
        <time>1970-01-01T00:00:00+00:00</time>
        <ele>1896.0</ele>
      </trkpt>
      <trkpt lat="45.612316" lon="7.330241">
        <time>1970-01-01T00:00:00+00:00</time>
        <ele>1888.0</ele>
      </trkpt>
      <trkpt lat="45.61266" lon="7.332966">
        <time>1970-01-01T00:00:00+00:00</time>
        <ele>1780.0</ele>
      </trkpt>
      <trkpt lat="45.61296" lon="7.332902">
        <time>1970-01-01T00:00:00+00:00</time>
        <ele>1781.0</ele>
      </trkpt>
      <trkpt lat="45.612917" lon="7.333717">
        <time>1970-01-01T00:00:00+00:00</time>
        <ele>1756.0</ele>
      </trkpt>
      <trkpt lat="45.613046" lon="7.334189">
        <time>1970-01-01T00:00:00+00:00</time>
        <ele>1742.0</ele>
      </trkpt>
      <trkpt lat="45.612638" lon="7.334876">
        <time>1970-01-01T00:00:00+00:00</time>
        <ele>1714.0</ele>
      </trkpt>
      <trkpt lat="45.612745" lon="7.335756">
        <time>1970-01-01T00:00:00+00:00</time>
        <ele>1673.0</ele>
      </trkpt>
      <trkpt lat="45.612488" lon="7.335927">
        <time>1970-01-01T00:00:00+00:00</time>
        <ele>1661.0</ele>
      </trkpt>
      <trkpt lat="45.612209" lon="7.337279">
        <time>1970-01-01T00:00:00+00:00</time>
        <ele>1645.0</ele>
      </trkpt>
      <trkpt lat="45.612359" lon="7.337966">
        <time>1970-01-01T00:00:00+00:00</time>
        <ele>1622.0</ele>
      </trkpt>
      <trkpt lat="45.612595" lon="7.337837">
        <time>1970-01-01T00:00:00+00:00</time>
        <ele>1617.0</ele>
      </trkpt>
      <trkpt lat="45.612445" lon="7.339404">
        <time>1970-01-01T00:00:00+00:00</time>
        <ele>1562.0</ele>
      </trkpt>
      <trkpt lat="45.612574" lon="7.339683">
        <time>1970-01-01T00:00:00+00:00</time>
        <ele>1545.0</ele>
      </trkpt>
      <trkpt lat="45.612509" lon="7.340326">
        <time>1970-01-01T00:00:00+00:00</time>
        <ele>1525.0</ele>
      </trkpt>
      <trkpt lat="45.612745" lon="7.340991">
        <time>1970-01-01T00:00:00+00:00</time>
        <ele>1504.0</ele>
      </trkpt>
      <trkpt lat="45.613089" lon="7.341249">
        <time>1970-01-01T00:00:00+00:00</time>
        <ele>1492.0</ele>
      </trkpt>
      <trkpt lat="45.613496" lon="7.341957">
        <time>1970-01-01T00:00:00+00:00</time>
        <ele>1481.0</ele>
      </trkpt>
      <trkpt lat="45.613904" lon="7.3423">
        <time>1970-01-01T00:00:00+00:00</time>
        <ele>1482.0</ele>
      </trkpt>
      <trkpt lat="45.61444" lon="7.34215">
        <time>1970-01-01T00:00:00+00:00</time>
        <ele>1479.0</ele>
      </trkpt>
      <trkpt lat="45.614333" lon="7.341893">
        <time>1970-01-01T00:00:00+00:00</time>
        <ele>1478.0</ele>
      </trkpt>
    </trkseg>
  </trk>
</gpx>
